Probability
58 61 68 65 55 39 39 39 39 29 26 16 6 3 10 10 10 10 10 16 19 13 10 13 3 6 6 3 0 0 0 0 0 0 0 0 0 0 0 0 3 3 10
45 58 68 65 48 39 26 26 29 26 16 16 10 6 10 10 10 13 10 19 26 13 13 10 10 3 6 0 0 0 0 0 0 0 0 0 0 0 0 0 0 0 0
55 52 58 61 42 35 32 29 26 19 16 16 13 16 10 13 13 10 10 13 23 19 26 13 6 3 3 0 0 0 0 0 0 0 0 0 0 0 0 0 0 0 0
48 42 42 48 42 35 29 26 23 13 16 16 23 23 16 16 13 13 13 10 19 16 16 13 6 3 3 0 0 0 0 0 0 0 0 0 0 0 0 0 0 0 0
42 42 35 39 42 35 29 26 23 13 13 16 19 26 23 16 10 6 6 6 10 19 19 16 10 6 3 3 0 0 0 0 0 0 0 0 0 0 0 0 0 0 0
35 42 45 39 39 32 26 23 23 16 13 13 13 16 16 10 6 6 6 6 6 3 13 13 10 10 10 3 0 0 0 0 0 0 0 0 0 0 0 0 0 0 0
39 42 42 35 39 35 29 26 23 19 16 10 13 13 13 10 10 10 6 6 6 6 10 13 10 6 3 3 0 0 0 0 0 0 0 0 0 0 0 0 0 0 0
26 35 39 32 32 35 35 29 26 19 19 13 16 13 10 10 10 13 10 10 10 10 10 10 6 3 3 3 3 0 0 0 0 0 0 0 0 0 0 0 0 0 0
19 26 32 35 39 32 32 32 29 23 19 23 13 13 6 6 10 10 6 10 6 10 10 6 10 0 0 0 0 0 0 0 0 0 0 0 0 0 0 0 0 0 0
16 26 29 26 29 29 29 19 19 16 19 19 19 19 6 10 10 6 6 10 6 6 3 6 6 3 0 0 0 0 0 0 0 0 0 0 0 0 0 0 0 0 0
16 19 26 32 29 26 26 23 16 13 10 16 16 16 10 6 6 6 6 6 10 3 3 3 6 3 3 0 0 0 0 0 0 0 0 0 0 0 0 0 0 0 0
13 19 23 32 32 26 23 23 13 10 16 13 16 16 13 10 10 6 6 6 3 6 6 3 6 3 3 3 3 0 0 0 0 0 0 0 0 0 0 0 0 0 0
10 19 26 26 32 29 23 23 19 16 19 16 13 13 10 13 10 6 6 3 6 6 6 3 3 6 3 3 3 3 0 0 0 0 0 0 0 0 0 0 0 0 0
10 23 23 19 26 26 26 23 16 19 19 16 13 13 16 13 10 10 10 6 6 6 3 3 3 6 3 3 3 3 3 0 0 0 0 0 0 0 0 0 0 0 0
10 13 16 16 16 23 23 16 16 19 16 13 13 13 16 16 10 10 6 6 3 3 3 3 3 3 3 6 3 3 3 0 0 0 0 0 0 0 0 0 0 0 0
13 10 10 10 16 16 13 10 13 16 16 16 13 13 13 16 13 13 10 6 3 3 0 3 3 3 3 3 0 0 3 3 0 0 0 0 0 0 0 0 0 0 0
10 10 6 6 6 10 6 13 10 10 10 10 10 6 10 10 13 13 13 13 3 3 3 0 0 0 0 0 0 0 0 0 0 0 0 0 0 0 0 0 0 0 0
13 10 3 3 0 0 3 10 10 6 6 3 3 3 0 0 0 0 0 10 6 3 3 3 3 0 0 0 0 0 0 0 0 0 3 0 0 0 0 0 0 0 0
3 3 3 3 0 0 3 6 10 6 3 3 3 3 0 0 0 0 0 0 3 3 3 3 3 3 0 0 0 0 0 0 0 0 0 0 0 0 0 0 0 0 0
0 3 0 0 0 0 3 6 10 6 6 3 3 3 3 0 0 0 0 0 3 3 3 3 3 3 3 0 0 0 0 0 0 0 0 0 0 0 0 0 0 0 0
0 0 0 3 3 0 6 6 6 3 6 3 3 3 3 3 3 0 0 0 0 3 6 6 6 3 0 0 0 0 0 0 0 0 0 0 0 0 0 0 0 0 0
0 0 0 0 0 3 6 6 6 6 3 3 0 0 0 3 3 0 0 0 0 3 6 6 6 6 3 0 0 0 0 0 0 0 0 0 0 0 0 0 0 0 0
0 0 0 0 0 3 6 6 6 6 3 0 0 0 0 0 0 0 0 0 0 3 6 6 6 6 6 3 0 0 0 0 0 0 0 0 0 0 0 0 0 0 0
3 3 3 3 0 3 6 6 6 6 3 0 0 0 0 0 0 0 0 0 0 0 3 3 6 6 3 3 3 0 0 0 0 0 0 0 0 0 0 0 0 0 0
3 3 3 3 6 3 3 6 6 3 3 0 0 0 0 0 0 0 0 0 0 0 0 0 0 3 3 3 3 3 0 0 0 0 0 0 0 0 0 0 0 0 0
3 3 6 6 3 3 3 3 3 0 0 3 0 0 0 0 0 3 3 0 0 0 0 0 0 0 0 0 0 0 0 0 0 0 0 0 0 0 0 0 0 0 0
Height
5852 5852 5851 5851 5850 5849 5849 5850 5851 5852 5854 5856 5859 5861 5864 5865 5867 5869 5871 5873 5875 5876 5878 5879 5881 5882 5884 5884 5885 5886 5887 5887 5888 5888 5889 5889 5889 5889 5890 5890 5890 5890 5890
5849 5848 5847 5847 5846 5845 5845 5847 5848 5850 5852 5853 5856 5858 5861 5863 5865 5867 5869 5871 5873 5875 5876 5878 5880 5881 5882 5883 5884 5885 5886 5887 5888 5888 5888 5889 5890 5890 5890 5890 5890 5890 5890
5845 5845 5845 5844 5842 5841 5842 5844 5845 5847 5849 5851 5853 5855 5857 5860 5863 5865 5867 5869 5871 5873 5875 5876 5878 5879 5881 5882 5883 5884 5885 5886 5887 5888 5888 5889 5889 5890 5890 5890 5890 5890 5890
5842 5842 5841 5841 5840 5839 5839 5841 5842 5844 5846 5848 5850 5852 5855 5858 5861 5862 5864 5867 5869 5871 5872 5874 5876 5878 5879 5881 5882 5883 5884 5885 5886 5887 5888 5888 5889 5889 5889 5890 5890 5890 5890
5838 5838 5838 5838 5837 5837 5838 5839 5840 5842 5844 5846 5848 5850 5853 5856 5858 5860 5862 5864 5866 5868 5870 5872 5874 5876 5877 5879 5880 5882 5883 5884 5885 5886 5887 5887 5888 5888 5889 5889 5890 5890 5890
5835 5835 5835 5835 5834 5834 5835 5836 5838 5840 5841 5844 5846 5848 5851 5853 5855 5857 5859 5862 5864 5866 5868 5869 5871 5873 5875 5876 5878 5880 5881 5883 5884 5885 5886 5887 5887 5888 5888 5888 5889 5889 5889
5831 5831 5832 5832 5832 5832 5832 5833 5835 5836 5838 5841 5843 5845 5848 5850 5853 5855 5857 5859 5861 5863 5865 5867 5869 5871 5873 5874 5876 5878 5879 5881 5882 5883 5884 5885 5886 5887 5887 5887 5888 5888 5888
5828 5828 5828 5828 5827 5827 5828 5830 5831 5832 5834 5837 5840 5842 5844 5847 5849 5851 5853 5855 5857 5859 5861 5864 5866 5868 5870 5872 5874 5876 5877 5879 5880 5882 5883 5884 5884 5885 5886 5886 5887 5887 5887
5824 5825 5825 5824 5824 5823 5824 5826 5827 5828 5831 5833 5836 5839 5841 5843 5846 5848 5849 5851 5853 5856 5858 5860 5863 5865 5867 5869 5871 5873 5875 5877 5878 5880 5881 5882 5883 5883 5884 5885 5885 5886 5886
5820 5821 5821 5821 5821 5820 5821 5822 5823 5825 5828 5830 5833 5835 5837 5840 5842 5844 5845 5847 5850 5852 5855 5857 5859 5862 5864 5867 5869 5871 5872 5874 5876 5877 5879 5880 5881 5881 5882 5883 5883 5884 5884
5816 5817 5817 5817 5817 5817 5817 5818 5819 5821 5824 5827 5829 5832 5833 5835 5837 5839 5841 5843 5846 5848 5851 5853 5856 5858 5861 5863 5865 5868 5870 5871 5873 5875 5876 5877 5878 5879 5880 5880 5881 5881 5881
5812 5813 5813 5813 5814 5813 5814 5814 5816 5818 5821 5824 5826 5828 5829 5832 5833 5835 5837 5839 5842 5845 5847 5849 5852 5855 5857 5860 5862 5864 5866 5868 5870 5872 5873 5875 5876 5876 5877 5878 5878 5879 5879
5809 5809 5809 5810 5810 5810 5810 5811 5813 5815 5818 5820 5823 5824 5826 5828 5829 5831 5834 5836 5838 5841 5844 5846 5849 5851 5853 5856 5858 5860 5863 5864 5866 5868 5870 5871 5872 5873 5874 5874 5875 5875 5876
5805 5805 5805 5806 5806 5807 5807 5808 5810 5812 5814 5817 5819 5821 5823 5824 5826 5828 5830 5833 5835 5837 5840 5843 5845 5848 5850 5852 5854 5856 5859 5861 5863 5864 5866 5867 5868 5869 5870 5871 5871 5872 5872
5802 5802 5802 5803 5804 5804 5804 5805 5807 5809 5812 5814 5816 5818 5819 5821 5823 5825 5827 5829 5831 5834 5837 5839 5842 5844 5846 5848 5850 5852 5854 5856 5858 5860 5862 5863 5864 5865 5866 5866 5867 5867 5867
5798 5798 5799 5800 5800 5801 5802 5803 5805 5807 5809 5811 5813 5814 5816 5818 5820 5822 5824 5826 5828 5830 5833 5835 5837 5839 5842 5844 5846 5848 5850 5852 5854 5855 5857 5858 5859 5860 5861 5861 5861 5862 5862
5794 5795 5796 5796 5797 5798 5800 5801 5803 5804 5806 5808 5810 5811 5813 5815 5816 5818 5820 5823 5825 5827 5829 5831 5833 5835 5837 5839 5841 5843 5845 5847 5849 5850 5851 5852 5853 5854 5855 5855 5856 5855 5855
5790 5791 5792 5793 5794 5795 5797 5799 5800 5802 5803 5805 5806 5808 5810 5811 5813 5815 5817 5819 5821 5823 5825 5827 5829 5831 5833 5834 5836 5838 5840 5842 5843 5844 5846 5846 5847 5848 5849 5849 5849 5849 5848
5786 5787 5788 5790 5791 5793 5795 5796 5797 5799 5800 5802 5803 5805 5806 5808 5810 5812 5813 5815 5817 5819 5821 5823 5824 5826 5828 5829 5831 5832 5834 5835 5837 5838 5839 5840 5841 5841 5842 5842 5842 5841 5840
5782 5783 5785 5786 5788 5790 5791 5793 5794 5796 5797 5799 5800 5801 5803 5804 5806 5808 5809 5811 5813 5815 5817 5818 5820 5821 5823 5824 5825 5826 5828 5829 5830 5831 5832 5833 5833 5834 5834 5834 5834 5833 5832
5778 5779 5781 5783 5784 5785 5787 5789 5790 5792 5793 5794 5796 5797 5799 5800 5802 5804 5805 5807 5808 5810 5812 5813 5814 5816 5817 5818 5819 5820 5821 5822 5823 5824 5825 5825 5826 5826 5826 5826 5825 5824 5823
5773 5775 5777 5778 5780 5781 5782 5784 5785 5787 5788 5790 5792 5793 5795 5796 5798 5799 5800 5802 5803 5805 5806 5808 5809 5810 5811 5812 5813 5813 5814 5815 5816 5816 5817 5817 5817 5817 5817 5817 5816 5815 5814
5769 5771 5772 5774 5775 5776 5778 5779 5781 5782 5784 5785 5787 5788 5790 5791 5793 5794 5796 5797 5798 5799 5801 5802 5803 5803 5804 5805 5806 5806 5807 5807 5808 5809 5809 5808 5808 5808 5808 5808 5806 5805 5803
5764 5766 5767 5769 5770 5771 5773 5774 5775 5777 5778 5779 5781 5783 5785 5787 5788 5789 5790 5791 5793 5794 5795 5796 5797 5797 5797 5798 5798 5799 5799 5799 5800 5800 5800 5800 5799 5799 5798 5797 5796 5794 5792
5759 5760 5762 5763 5765 5767 5768 5769 5770 5772 5773 5774 5775 5777 5779 5781 5782 5784 5785 5786 5787 5788 5789 5790 5790 5790 5791 5791 5791 5791 5792 5792 5791 5791 5791 5791 5790 5789 5788 5786 5785 5783 5781
5754 5756 5757 5759 5760 5762 5763 5764 5765 5766 5767 5768 5769 5771 5773 5775 5776 5777 5779 5780 5781 5782 5783 5783 5784 5784 5784 5784 5784 5784 5784 5783 5783 5782 5782 5781 5780 5779 5777 5776 5774 5772 5769
Wind_Speed
13 14 14 14 14 13 13 11 12 12 13 13 14 14 13 14 14 14 13 12 12 11 9 9 8 7 6 5 4 3 3 3 3 2 2 2 1 1 1 1 1 1 1
13 13 14 14 14 13 12 12 11 12 13 13 14 15 15 15 15 15 14 13 13 12 11 10 10 9 7 6 5 4 4 4 3 3 2 2 2 1 1 1 1 1 1
13 14 14 14 14 13 13 12 12 13 13 14 14 16 15 15 15 15 14 14 14 13 12 12 12 10 9 7 6 6 5 5 4 4 3 3 3 2 1 1 1 1 1
14 15 14 14 13 11 12 13 13 14 14 14 14 15 15 15 15 16 15 15 15 14 14 13 13 12 11 9 7 7 7 6 5 5 4 4 3 3 2 1 1 1 2
15 14 14 15 14 12 11 12 13 14 14 14 15 16 16 16 17 17 17 16 16 15 15 15 14 13 12 10 9 8 8 7 6 5 5 5 4 4 3 2 2 2 2
14 14 14 14 14 13 13 13 15 15 15 16 16 17 17 17 17 17 18 17 17 17 16 16 15 14 13 12 11 10 9 9 8 7 6 6 5 5 4 4 4 3 3
14 13 13 14 14 14 15 15 16 16 16 17 17 17 17 17 17 17 18 19 18 18 17 17 17 16 14 13 12 12 11 10 9 8 8 7 6 6 6 6 5 5 4
14 14 15 16 16 15 15 16 17 17 17 17 18 18 18 18 18 18 18 19 20 19 18 19 18 17 16 15 14 13 13 12 11 10 9 9 8 7 7 7 7 6 6
14 13 14 16 16 15 14 15 15 16 17 18 19 19 19 19 19 19 19 19 20 20 19 19 18 17 17 17 16 15 14 13 13 12 11 10 9 9 9 9 8 8 7
14 14 15 16 17 17 15 16 16 18 18 19 19 19 19 20 20 19 19 20 20 20 20 19 18 18 18 18 17 16 15 14 14 13 12 11 10 10 10 10 10 9 9
14 15 15 16 16 17 16 16 16 17 18 18 19 19 19 19 19 20 19 21 21 21 22 21 20 19 19 19 19 17 17 16 15 14 13 12 12 11 11 11 11 11 11
14 15 15 15 15 15 15 15 16 16 18 19 19 19 19 19 19 20 20 21 22 22 21 22 22 21 20 20 19 19 18 17 16 15 15 14 13 13 13 13 13 12 12
12 13 14 14 13 13 14 15 16 17 19 19 18 18 18 18 18 19 19 21 22 22 22 22 21 21 21 20 20 20 20 19 18 17 16 15 15 14 14 14 14 13 14
12 12 12 12 12 12 13 14 15 16 17 18 17 17 17 17 18 18 20 20 21 22 21 21 21 22 22 21 21 21 21 20 20 19 18 17 17 16 16 16 16 16 17
13 13 12 13 13 13 13 14 15 15 16 17 17 17 18 18 18 18 19 20 20 21 22 22 22 22 22 22 23 23 22 21 21 21 20 19 19 19 18 18 19 19 20
13 13 12 13 13 12 12 13 14 15 16 17 17 18 18 18 18 19 20 20 21 21 22 23 23 23 22 22 22 23 24 23 23 22 22 21 21 21 21 21 21 22 22
14 13 13 12 13 12 12 13 12 13 15 16 17 17 18 18 19 19 19 19 20 21 21 23 23 23 23 22 22 24 25 25 24 24 24 24 24 24 24 24 24 24 25
16 15 14 13 12 12 12 12 13 14 14 15 16 16 16 18 18 18 19 19 19 20 20 20 21 22 23 23 23 24 25 26 26 26 26 27 26 26 26 26 27 28 28
15 15 14 13 13 13 13 13 13 14 15 15 16 17 17 17 17 18 18 18 19 19 20 20 21 22 23 24 24 25 26 28 28 28 28 28 28 28 28 29 30 30 32
16 16 16 15 14 15 15 14 14 14 15 16 16 17 17 17 17 18 18 19 19 20 20 21 21 21 22 23 24 25 25 27 29 29 29 30 30 31 31 31 32 32 33
16 16 16 16 16 16 16 16 16 16 17 17 17 17 17 17 18 19 19 19 19 20 21 21 21 22 22 24 25 25 25 27 28 29 30 31 32 33 33 32 33 34 35
17 17 17 17 16 16 16 17 18 18 18 19 18 18 18 19 19 20 20 20 20 20 21 21 21 22 24 25 26 27 27 28 29 30 31 32 34 34 34 34 35 36 37
17 18 18 18 17 18 18 19 19 20 20 20 20 20 20 20 20 21 21 22 21 21 22 22 22 24 25 26 27 28 28 29 30 31 32 34 35 36 36 37 37 38 40
18 18 18 18 18 18 18 18 19 19 20 21 21 22 23 22 22 22 21 21 21 22 23 23 24 25 26 26 27 28 30 31 31 32 33 35 36 36 37 38 40 41 41
18 18 18 18 19 19 19 19 19 19 19 20 21 22 23 23 23 23 23 22 22 23 23 23 24 25 26 26 27 28 30 31 32 33 34 35 36 37 38 39 40 41 43
18 17 17 18 19 19 20 21 21 21 21 21 22 22 22 23 24 24 24 24 24 24 24 24 25 26 27 27 28 29 31 32 33 34 35 35 36 37 39 40 41 41 43
Wind_Direction
269 275 276 277 281 275 265 256 249 236 232 231 228 228 226 226 223 222 223 222 221 222 226 226 226 231 235 233 232 243 239 226 204 193 185 170 168 158 164 183 199 215 238
279 281 284 283 288 272 252 246 237 228 228 227 226 225 225 224 223 219 220 221 220 222 225 225 224 227 230 229 229 232 227 211 203 205 189 174 173 165 172 180 222 221 228
279 281 285 288 289 269 245 239 232 229 226 225 225 224 221 221 222 221 222 221 221 224 225 224 224 226 228 228 233 231 219 213 212 205 199 198 191 192 202 201 218 220 219
275 277 278 280 285 266 245 239 229 228 228 225 222 220 218 218 221 221 221 221 220 222 224 225 224 227 228 229 234 225 219 217 217 211 207 209 204 202 211 223 247 240 238
276 275 274 273 272 264 250 241 228 228 227 223 219 215 217 220 222 221 218 220 222 224 224 224 225 227 227 228 227 225 220 217 219 220 220 220 214 214 226 247 259 256 254
272 271 268 270 266 261 252 245 236 230 228 223 219 217 220 222 223 222 220 222 224 226 226 227 228 227 227 228 228 223 219 220 223 223 224 226 226 231 242 257 260 256 256
268 265 263 267 265 261 255 246 241 236 229 223 219 219 221 222 222 223 224 225 225 226 226 226 226 227 227 227 225 222 221 221 223 225 228 232 237 245 250 255 259 257 259
268 266 262 265 264 259 252 244 241 238 230 220 219 220 222 224 224 225 227 226 226 226 227 226 226 227 227 226 223 222 223 224 226 228 232 237 242 248 253 258 259 257 259
268 268 264 265 264 258 246 243 241 235 226 221 221 225 226 227 226 228 228 226 227 226 226 225 227 226 226 225 224 225 225 224 227 231 236 239 242 246 253 259 260 260 261
265 266 264 265 262 256 249 244 238 235 228 222 223 227 228 229 229 230 229 226 225 224 224 225 226 226 226 226 226 227 226 226 229 234 237 238 243 246 252 256 259 262 265
264 263 262 263 263 256 246 241 238 228 223 223 225 228 229 230 230 230 229 227 225 224 223 224 226 226 227 228 228 228 227 228 231 235 235 238 244 249 253 255 258 262 267
263 260 258 260 262 255 246 239 229 226 223 224 229 230 230 231 231 230 230 227 225 224 223 226 227 226 227 229 230 230 229 231 232 233 235 240 246 250 254 256 259 262 267
260 258 257 258 257 251 242 235 228 228 225 226 229 231 232 233 232 230 229 225 223 223 225 227 227 228 228 230 231 231 233 234 234 235 237 240 246 251 255 257 260 264 269
253 257 258 255 254 248 238 229 228 228 227 227 229 232 233 232 232 232 230 228 226 225 226 228 229 229 231 235 235 234 235 234 235 238 240 244 248 251 255 259 263 267 271
252 253 252 252 252 245 236 229 225 225 228 230 231 233 232 230 232 233 233 232 229 229 229 232 232 233 236 239 238 235 234 235 238 241 243 246 250 253 257 261 265 269 273
249 252 251 250 249 246 236 231 228 229 231 234 236 234 231 232 233 235 236 236 234 232 234 234 235 236 239 241 241 238 237 239 241 242 245 250 254 257 260 263 265 269 273
250 255 255 254 250 244 240 237 235 234 233 235 235 235 233 235 236 236 235 237 235 234 235 237 238 240 241 243 243 242 240 242 244 246 250 254 257 260 263 266 269 271 275
247 251 253 252 250 243 239 238 238 237 237 237 235 235 238 236 236 237 239 240 239 238 239 241 241 242 243 245 245 247 247 247 249 251 253 257 259 263 266 269 270 273 276
246 247 249 249 246 242 241 240 240 241 240 240 238 237 237 237 237 237 238 239 239 239 241 244 246 246 246 247 248 250 253 252 252 254 256 258 261 264 267 270 272 275 278
248 245 247 246 245 244 244 242 242 242 241 242 241 240 239 237 236 237 240 242 242 241 243 247 249 250 250 251 251 253 256 255 254 255 257 259 262 265 268 271 274 277 279
244 242 244 245 246 247 247 244 244 244 243 243 244 243 243 240 239 241 244 245 244 244 246 249 250 252 253 255 256 256 258 257 256 258 259 261 263 266 268 271 274 276 278
241 241 245 245 246 249 248 245 245 246 246 246 247 247 246 245 245 246 247 248 248 247 247 250 252 254 255 257 257 257 259 260 260 262 262 264 265 267 269 272 274 276 279
241 242 246 246 248 248 249 250 250 250 250 248 249 249 249 249 249 248 249 250 250 250 250 252 255 258 259 259 260 259 260 262 263 265 267 267 268 270 272 272 274 277 279
246 248 249 248 247 248 250 252 252 252 252 249 248 248 248 251 251 248 249 250 251 252 253 255 258 261 261 263 263 264 264 265 265 267 269 270 271 273 274 275 276 278 279
251 252 251 248 249 250 251 252 254 254 251 250 247 247 248 249 248 247 249 251 252 252 254 256 259 260 262 264 264 265 267 269 269 270 272 273 274 275 275 276 277 279 280
248 249 250 250 251 251 252 251 253 253 252 251 249 247 248 250 249 248 249 252 253 253 255 258 260 261 263 264 266 267 269 271 272 273 274 274 275 276 276 277 278 280 283